HULIANWANG DIGUI-19

导读

HULIANWANG DIGUI-19(卫星互联网低轨19组卫星)是中国于2025年规划的低轨互联网卫星,实际于2026年1月19日在海南商业航天发射场由长征十二号运载火箭成功发射入轨。该卫星由银河航天研制,搭载自主研发的相控阵、毫米波天线等核心技术,实现数字化全流程研制,将完善我国低轨卫星互联网星座布局,提升全球网络覆盖能力。

基本信息
目录编号:
62979
目录名称:
HULIANWANG DIGUI-19
国际标识:
2025-030J
轨道中心:
EARTH
卫星名称:
HULIANWANG DIGUI-19
卫星全名:
HULIANWANG DIGUI-19
卫星状态:
在轨 (已飞行532 天)
发射日期:
2025-02-11 UTC
国别 :
中国 (CN)
星等 :
--
轨道信息
数据来源 国际轨道数据 AOE轨道数据
星历时间 2026-07-27T23:46:04+0800
8小时前
查看轨道信息
2026-07-26T00:00:00+0800
2天前
查看轨道信息
半长轴 7527.469km 7527.469km
偏心率 0.0000611 0.0000518
轨道倾角 50.005° 50.006°
近地点辐角 304.097° 288.345°
升交点赤经 90.629° 97.769°
平近点角 55.985° 261.052°
近地点 1148.872km 1148.942km
远地点 1149.792km 1149.722km
周期 108.326分钟 108.326分钟
每日圈数 13.293195 13.293195
详细信息
使用方式:
暂无
2D轨道图
3D轨道图
轨道高度分析图
轨道倾角分析图
轨道综合分析图
查看轨道综合分析图